TimeCET,TemperatureF,Dew PointF,Humidity,Sea Level PressureIn,VisibilityMPH,Wind Direction,Wind SpeedMPH,Gust SpeedMPH,PrecipitationIn,Events,Conditions,WindDirDegrees,DateUTC
1:00 AM,35,32,83,29.98,,South,11.2,,,,,180,2012-10-31 00:00:00
6:45 AM,30.2,28.4,93,30.01,4.3,East,3.5,-,N/A,,Partly Cloudy,90,2012-10-31 05:45:00
7:00 AM,29,28,94,30.02,4,East,4.5,,,,Partly Cloudy,90,2012-10-31 06:00:00
7:15 AM,30.2,30.2,100,30.01,4.3,ESE,4.6,-,N/A,,Partly Cloudy,110,2012-10-31 06:15:00
7:45 AM,33.8,30.2,87,30.04,-9999.0,East,4.6,-,N/A,,Clear,90,2012-10-31 06:45:00
8:15 AM,37.4,30.2,75,30.04,-9999.0,ESE,5.8,-,N/A,,Clear,120,2012-10-31 07:15:00
8:45 AM,39.2,30.2,70,30.04,-9999.0,SE,6.9,-,N/A,,Clear,140,2012-10-31 07:45:00
9:00 AM,-9999,-9999,N/A,-9999,-9999.0,SE,9.2,-,N/A,,Clear,140,2012-10-31 08:00:00
9:15 AM,41.0,32.0,70,30.04,-9999.0,SSE,6.9,-,N/A,,Clear,160,2012-10-31 08:15:00
9:45 AM,42.8,30.2,61,30.04,-9999.0,SSE,6.9,-,N/A,,Clear,160,2012-10-31 08:45:00
10:15 AM,44.6,30.2,57,30.04,-9999.0,South,6.9,-,N/A,,Clear,170,2012-10-31 09:15:00
10:45 AM,44.6,30.2,57,30.04,-9999.0,South,6.9,-,N/A,,Clear,170,2012-10-31 09:45:00
11:15 AM,46.4,30.2,53,30.04,-9999.0,SE,4.6,-,N/A,,Clear,140,2012-10-31 10:15:00
11:45 AM,46.4,30.2,53,30.01,-9999.0,SE,4.6,-,N/A,,Clear,140,2012-10-31 10:45:00
12:00 PM,-9999,-9999,N/A,-9999,-9999.0,SSE,9.2,-,N/A,,Clear,150,2012-10-31 11:00:00
12:15 PM,48.2,28.4,46,30.01,-9999.0,SE,4.6,-,N/A,,Clear,140,2012-10-31 11:15:00
12:45 PM,48.2,28.4,46,30.01,-9999.0,SSE,5.8,-,N/A,,Clear,150,2012-10-31 11:45:00
1:00 PM,48,28,32,30.01,12,SSE,6.7,,,,Partly Cloudy,150,2012-10-31 12:00:00
1:15 PM,48.2,26.6,43,30.01,-9999.0,SE,4.6,-,N/A,,Clear,140,2012-10-31 12:15:00
1:45 PM,48.2,28.4,46,30.01,-9999.0,SE,4.6,-,N/A,,Clear,140,2012-10-31 12:45:00
2:15 PM,50.0,26.6,40,30.01,-9999.0,SE,4.6,-,N/A,,Clear,130,2012-10-31 13:15:00
2:45 PM,48.2,23.0,37,30.01,-9999.0,SSE,6.9,-,N/A,,Clear,150,2012-10-31 13:45:00
3:00 PM,-9999,-9999,N/A,-9999,-9999.0,SE,6.9,-,N/A,,Clear,130,2012-10-31 14:00:00
3:15 PM,48.2,24.8,40,30.01,-9999.0,SE,5.8,-,N/A,,Clear,140,2012-10-31 14:15:00
3:45 PM,46.4,26.6,46,30.01,-9999.0,ESE,3.5,-,N/A,,Clear,120,2012-10-31 14:45:00
4:15 PM,44.6,26.6,49,29.98,-9999.0,ESE,2.3,-,N/A,,Clear,120,2012-10-31 15:15:00
4:45 PM,41.0,28.4,61,29.98,-9999.0,East,3.5,-,N/A,,Clear,90,2012-10-31 15:45:00
5:15 PM,41.0,28.4,61,29.98,-9999.0,East,4.6,-,N/A,,Clear,80,2012-10-31 16:15:00
5:45 PM,39.2,28.4,65,29.98,-9999.0,ENE,3.5,-,N/A,,Clear,70,2012-10-31 16:45:00
6:00 PM,-9999,-9999,N/A,-9999,-9999.0,North,-9999.0,-,N/A,,Unknown,0,2012-10-31 17:00:00
6:15 PM,39.2,28.4,65,29.98,-9999.0,ENE,3.5,-,N/A,,Clear,60,2012-10-31 17:15:00
6:45 PM,37.4,28.4,70,29.98,-9999.0,NE,3.5,-,N/A,,Clear,40,2012-10-31 17:45:00
7:00 PM,38,28,58,29.99,9,NE,4.5,,,,Partly Cloudy,40,2012-10-31 18:00:00